Terminal Aerodrome Forecast
Issued by NWS Honolulu, HI

Home | Current Version | Previous Version | Text Only | Print | Product List | Glossary On
Versions: 1 2 3 4 5 6 7 8 9 10 11 12 13 14 15 16 17 18 19 20 21 22 23 24 25 26
000
FTPA31 PHFO 280256 AAA
TAFHNL
TAF AMD
PHNL 280256Z 2803/2906 06015KT P6SM FEW025 SCT050 BKN200
     FM280500 05011KT P6SM SCT040 BKN200
     FM281900 06015G24KT P6SM FEW025 SCT050
     FM290500 05011KT P6SM FEW025 SCT050=

USA.gov is the U.S. government's official web portal to all federal, state and local government web resources and services.